User: anonymous   Login
Location: Unspecified
(0.0000°N, 0.0000°E)
Time: 12:18:19
(UTC+00:00)
Language:

DANDE - Orbit

View from above orbital plane
View from above orbital plane
View from above satellite
View from above satellite

Ground track
Ground track

The orbit data is extracted from the following two-line orbital elements,

1 39267U 13055C   21015.79138677  .00001935  00000-0  53942-4 0  9993
2 39267  81.0110 123.4676 0687467  93.4466 274.5540 14.23473918374451
Epoch (UTC): 15 January 2021 18:59:35
Eccentricity: 0.0687467
inclination: 81.0110°
perigee height: 319 km
apogee height: 1308 km
right ascension of ascending node: 123.4676°
argument of perigee: 93.4466°
revolutions per day: 14.23473918
mean anomaly at epoch: 274.5540°
orbit number at epoch: 37445

The dashed part of the orbit path shows where the satellite is in the earth's shadow,  

DLR